Regional Weather Roundup
Issued by NWS

Home | Current Version | Previous Version | Text Only | Print | Product List | Glossary Off
Versions: 1 2 3 4 5 6 7 8 9 10 11 12 13 14 15 16 17 18 19 20 21 22 23 24 25 26 27 28 29 30 31 32 33 34 35 36 37 38 39 40 41 42 43 44 45 46 47 48 49 50

000
ASUS43 KDMX 052007
RWRIA

WEATHER ROUNDUP FOR IOWA
NATIONAL WEATHER SERVICE DES MOINES IA
300 PM CDT TUE MAY 05 2015

NOTE: "FAIR" INDICATES FEW OR NO CLOUDS BELOW 12,000 FEET WITH NO
SIGNIFICANT WEATHER AND/OR OBSTRUCTIONS TO VISIBILITY.

* - THESE STATIONS ARE NOT NWS STATIONS...THUS NOT UNDER NWS
QUALITY CONTROL.  THEY ALSO DO NOT REPORT WEATHER SUCH
AS PRECIPITATION OR FOG.

IAZ001>003-012>014-020>022-031>034-043>046-052100-
   NORTHWEST IOWA

CITY           SKY/WX    TMP DP  RH WIND       PRES   REMARKS
CARROLL *      PTSUNNY   73  61  64 S13       30.07F
CHEROKEE *     CLOUDY    70  63  78 S7        30.06F
DENISON *      PTSUNNY   73  64  73 S14       30.04F
LE MARS *      CLOUDY    72  61  68 S10       30.05F
ORANGE CITY *  PTSUNNY   63  57  82 SE7       30.06F
SHELDON *      CLOUDY    63  63 100 SE13      30.07S
SIOUX CITY     LGT RAIN  73  61  65 S13       30.03F
SPENCER        CLOUDY    60  58  92 E15       30.10S FOG
STORM LAKE *   PTSUNNY   70  63  78 CALM      30.08F
$$

IAZ055>058-069>071-079>083-090>094-052100-
   SOUTHWEST IOWA

CITY           SKY/WX    TMP DP  RH WIND       PRES   REMARKS
ATLANTIC *     PTSUNNY   75  61  60 S9G17     30.06F
AUDUBON *      MOSUNNY   75  63  64 S10G17    30.08F
CLARINDA *     MOSUNNY   77  61  57 S7G13     30.07F
COUNCIL BLFS * SUNNY     73  64  73 S13       30.05F
CRESTON *      MOSUNNY   75  63  64 S10       30.09F
HARLAN  *      PTSUNNY   73  66  78 S16       30.09F
LAMONI         MOSUNNY   78  61  55 S10       30.09F HX  80
RED OAK *      SUNNY     77  59  53 S12       30.06F
SHENANDOAH *   MOSUNNY   77  63  61 SE9       30.06F
$$

IAZ047>049-059>061-072>074-084-052100-
   CENTRAL IOWA

CITY           SKY/WX    TMP DP  RH WIND       PRES   REMARKS
AMES           CLOUDY    72  62  71 NE5       30.09F
ANKENY *       PTSUNNY   77  59  53 SE13      30.08F
CHARITON *     MOSUNNY   75  61  60 S8        30.10F
DES MOINES     PTSUNNY   79  61  53 SE9       30.08F HX  80
GRINNELL*      PTSUNNY   77  57  50 S9        30.11S
KNOXVILLE *    MOSUNNY   77  59  53 S9G16     30.09S
MARSHALLTOWN   PTSUNNY   73  63  70 S6        30.10F
PELLA *        PTSUNNY   77  64  65 S7        30.11S
PERRY *          N/A     75  61  60 S10       30.08F
$$

IAZ004>006-015-016-023>025-035-036-052100-
   NORTH CENTRAL IOWA

CITY           SKY/WX    TMP DP  RH WIND       PRES   REMARKS
ALGONA *       CLOUDY    59  59 100 E10       30.12F
CLARION *      CLOUDY    59  59 100 E15       30.12F FOG
ESTHERVILLE    CLOUDY    56  56 100 SE16      30.11F FOG
FORT DODGE *   CLOUDY    64  61  88 E12       30.10F
MASON CITY     CLOUDY    55  54  96 E10       30.17S FOG
FOREST CITY *  CLOUDY    54  54 100 E14       30.15S
IOWA FALLS *   CLOUDY    61  59  94 E13       30.14S FOG
$$

IAZ007>011-017>019-026>030-037>042-050>054-066-052100-
   NORTHEAST IOWA

CITY           SKY/WX    TMP DP  RH WIND       PRES   REMARKS
CEDAR RAPIDS   CLOUDY    64  62  93 E13       30.14S FOG
CHARLES CITY * CLOUDY    54  54 100 E14       30.18S
CLINTON *      PTSUNNY   64  61  88 E13G18    30.20F
DECORAH *      CLOUDY    52  52 100 E9G16     30.20S FOG
DUBUQUE        CLOUDY    56  54  93 E8        30.20F FOG
MONTICELLO *   CLOUDY    59  59 100 E10       30.18S
OELWEIN *      CLOUDY    57  55  94 E14       30.18S
WATERLOO       CLOUDY    59  56  89 E14       30.15F
$$

IAZ064-065-067-068-078-052100-
   EAST CENTRAL IOWA

CITY           SKY/WX    TMP DP  RH WIND       PRES   REMARKS
DAVENPORT      CLOUDY    67  61  81 NE13      30.17S HAZE
IOWA CITY      PTSUNNY   69  64  84 NE12      30.15F HAZE
MT. PLEASANT * CLOUDY    79  61  53 SW7       30.12F HX  80
MUSCATINE *    PTSUNNY   77  64  65 SE6       30.13S
QUAD CITIES    PTSUNNY   71  62  73 NE13      30.14F HAZE
$$

IAZ062-063-075>077-085>089-095>099-052100-
   SOUTHEAST IOWA

CITY           SKY/WX    TMP DP  RH WIND       PRES   REMARKS
BURLINGTON     PTSUNNY   79  64  60 W8        30.12F HX  81
FAIRFIELD *    MOSUNNY   79  61  53 S8G14     30.11F HX  80
FORT MADISON * MOSUNNY   79  63  57 S9        30.13S HX  80
KEOKUK *       MOSUNNY   81  61  50 S9        30.11F HX  81
OSKALOOSA *    HVY RAIN  73  63  68 S17G28    30.11S
CENTERVILLE *  SUNNY     77  61  57 S7        30.12F
OTTUMWA        PTSUNNY   78  62  57 S8        30.10F HX  80
WASHINGTON *   CLOUDY    79  79 100 S12       30.11F HX  83
$$

ABBREVIATIONS USED IN REMARKS
   TC - TEMPERATURES IN CELSIUS
  WCI - WIND CHILL INDEX
   HX - HEAT INDEX
  VSB - VISIBILITY
$$




USA.gov is the U.S. government's official web portal to all federal, state and local government web resources and services.